Time,TemperatureF,DewpointF,PressureIn,WindDirection,WindDirectionDegrees,WindSpeedMPH,WindSpeedGustMPH,Humidity,HourlyPrecipIn,Conditions,Clouds,dailyrainin,SolarRadiationWatts/m^2,SoftwareType,DateUTC
2013-01-01 00:02:00,15.0,8.0,-100.00,NE,39,0.0,6.0,73,0.00,,,0.00,0.000000,,2013-01-01 07:02:00,
2013-01-01 00:12:00,15.0,8.0,-100.00,NE,39,0.0,6.0,73,0.00,,,0.00,0.000000,,2013-01-01 07:12:00,
2013-01-01 00:22:00,15.0,8.0,-100.00,NE,39,0.0,6.0,73,0.00,,,0.00,0.000000,,2013-01-01 07:22:00,
2013-01-01 00:32:00,15.0,8.0,-100.00,NE,39,0.0,6.0,73,0.00,,,0.00,0.000000,,2013-01-01 07:32:00,
2013-01-01 00:52:00,14.0,8.0,-100.00,ENE,77,2.0,4.0,78,0.00,,,0.00,0.000000,,2013-01-01 07:52:00,
2013-01-01 01:02:00,14.0,8.0,-100.00,ENE,77,2.0,4.0,78,0.00,,,0.00,0.000000,,2013-01-01 08:02:00,
2013-01-01 01:11:00,14.0,8.0,-100.00,ENE,77,2.0,4.0,78,0.00,,,0.00,0.000000,,2013-01-01 08:11:00,
2013-01-01 01:22:00,14.0,8.0,-100.00,ENE,77,2.0,4.0,78,0.00,,,0.00,0.000000,,2013-01-01 08:22:00,
2013-01-01 01:32:00,14.0,8.0,-100.00,ENE,77,2.0,4.0,78,0.00,,,0.00,0.000000,,2013-01-01 08:32:00,
2013-01-01 01:53:00,13.0,7.0,-100.00,East,85,4.0,6.0,77,0.00,,,0.00,0.000000,,2013-01-01 08:53:00,
2013-01-01 02:02:00,13.0,7.0,-100.00,East,85,4.0,6.0,77,0.00,,,0.00,0.000000,,2013-01-01 09:02:00,
2013-01-01 02:11:00,13.0,7.0,-100.00,East,85,4.0,6.0,77,0.00,,,0.00,0.000000,,2013-01-01 09:11:00,
2013-01-01 02:22:00,13.0,7.0,-100.00,East,85,4.0,6.0,77,0.00,,,0.00,0.000000,,2013-01-01 09:22:00,
2013-01-01 02:32:00,13.0,7.0,-100.00,East,85,4.0,6.0,77,0.00,,,0.00,0.000000,,2013-01-01 09:32:00,
2013-01-01 02:52:00,12.0,8.0,-100.00,SSW,202,0.0,8.0,82,0.00,,,0.00,0.000000,,2013-01-01 09:52:00,
2013-01-01 03:02:00,12.0,8.0,-100.00,SSW,202,0.0,8.0,82,0.00,,,0.00,0.000000,,2013-01-01 10:02:00,
2013-01-01 03:12:00,12.0,8.0,-100.00,SSW,202,0.0,8.0,82,0.00,,,0.00,0.000000,,2013-01-01 10:12:00,
2013-01-01 03:22:00,12.0,8.0,-100.00,SSW,202,0.0,8.0,82,0.00,,,0.00,0.000000,,2013-01-01 10:22:00,
2013-01-01 03:32:00,12.0,8.0,-100.00,SSW,202,0.0,8.0,82,0.00,,,0.00,0.000000,,2013-01-01 10:32:00,
2013-01-01 03:53:00,11.0,7.0,-100.00,ENE,68,1.0,4.0,83,0.00,,,0.00,0.000000,,2013-01-01 10:53:00,
2013-01-01 04:02:00,11.0,7.0,-100.00,ENE,68,1.0,4.0,83,0.00,,,0.00,0.000000,,2013-01-01 11:02:00,
2013-01-01 04:12:00,11.0,7.0,-100.00,ENE,68,1.0,4.0,83,0.00,,,0.00,0.000000,,2013-01-01 11:12:00,
2013-01-01 04:22:00,11.0,7.0,-100.00,ENE,68,1.0,4.0,83,0.00,,,0.00,0.000000,,2013-01-01 11:22:00,
2013-01-01 04:32:00,11.0,7.0,-100.00,ENE,68,1.0,4.0,83,0.00,,,0.00,0.000000,,2013-01-01 11:32:00,
2013-01-01 04:53:00,10.0,7.0,-100.00,East,86,0.0,6.0,86,0.00,,,0.00,0.000000,,2013-01-01 11:53:00,
2013-01-01 05:02:00,10.0,7.0,-100.00,East,86,0.0,6.0,86,0.00,,,0.00,0.000000,,2013-01-01 12:02:00,
2013-01-01 05:12:00,10.0,7.0,-100.00,East,86,0.0,6.0,86,0.00,,,0.00,0.000000,,2013-01-01 12:12:00,
2013-01-01 05:22:00,10.0,7.0,-100.00,East,86,0.0,6.0,86,0.00,,,0.00,0.000000,,2013-01-01 12:22:00,
2013-01-01 06:02:00,9.0,4.0,-100.00,East,81,5.0,8.0,81,0.00,,,0.00,0.000000,,2013-01-01 13:02:00,
2013-01-01 06:12:00,9.0,4.0,-100.00,East,81,5.0,8.0,81,0.00,,,0.00,0.000000,,2013-01-01 13:12:00,
2013-01-01 06:22:00,9.0,4.0,-100.00,East,81,5.0,8.0,81,0.00,,,0.00,0.000000,,2013-01-01 13:22:00,
2013-01-01 06:32:00,9.0,4.0,-100.00,East,81,5.0,8.0,81,0.00,,,0.00,0.000000,,2013-01-01 13:32:00,
2013-01-01 06:53:00,9.0,5.0,-100.00,ESE,110,2.0,7.0,82,0.00,,,0.00,0.000000,,2013-01-01 13:53:00,
2013-01-01 07:02:00,9.0,5.0,-100.00,ESE,110,2.0,7.0,82,0.00,,,0.00,0.000000,,2013-01-01 14:02:00,
2013-01-01 07:12:00,9.0,5.0,-100.00,ESE,110,2.0,7.0,82,0.00,,,0.00,0.000000,,2013-01-01 14:12:00,
2013-01-01 07:22:00,9.0,5.0,-100.00,ESE,110,2.0,7.0,82,0.00,,,0.00,0.000000,,2013-01-01 14:22:00,
2013-01-01 07:32:00,9.0,5.0,-100.00,ESE,110,2.0,7.0,82,0.00,,,0.00,0.000000,,2013-01-01 14:32:00,
2013-01-01 08:02:00,8.0,5.0,-100.00,East,84,2.0,6.0,86,0.00,,,0.00,0.000000,,2013-01-01 15:02:00,
2013-01-01 08:12:00,8.0,5.0,-100.00,East,84,2.0,6.0,86,0.00,,,0.00,0.000000,,2013-01-01 15:12:00,
2013-01-01 08:22:00,8.0,5.0,-100.00,East,84,2.0,6.0,86,0.00,,,0.00,0.000000,,2013-01-01 15:22:00,
2013-01-01 08:32:00,8.0,5.0,-100.00,East,84,2.0,6.0,86,0.00,,,0.00,0.000000,,2013-01-01 15:32:00,
2013-01-01 09:02:00,7.0,4.0,-100.00,WSW,239,1.0,7.0,86,0.00,,,0.00,3.000000,,2013-01-01 16:02:00,
2013-01-01 10:02:00,10.0,3.0,-100.00,East,100,5.0,5.0,74,0.00,,,0.00,52.000000,,2013-01-01 17:02:00,
2013-01-01 10:32:00,10.0,3.0,-100.00,East,100,5.0,5.0,74,0.00,,,0.00,52.000000,,2013-01-01 17:32:00,
2013-01-01 11:03:00,15.0,5.0,-100.00,ESE,115,3.0,8.0,63,-99.99,,,0.00,201.000000,,2013-01-01 18:03:00,
2013-01-01 11:53:00,19.0,6.0,-100.00,SE,127,2.0,5.0,57,-99.99,,,0.00,312.000000,,2013-01-01 18:53:00,
2013-01-01 12:02:00,19.0,6.0,-100.00,SE,127,2.0,5.0,57,-99.99,,,0.00,312.000000,,2013-01-01 19:02:00,
2013-01-01 12:32:00,19.0,6.0,-100.00,SE,127,2.0,5.0,57,-99.99,,,0.00,312.000000,,2013-01-01 19:32:00,
2013-01-01 12:52:00,25.0,9.0,-100.00,South,183,1.0,5.0,49,-99.99,,,0.00,389.000000,,2013-01-01 19:52:00,
2013-01-01 13:02:00,25.0,9.0,-100.00,South,183,1.0,5.0,49,-99.99,,,0.00,389.000000,,2013-01-01 20:02:00,
2013-01-01 13:53:00,30.0,11.0,-100.00,South,175,1.0,5.0,45,-99.99,,,0.01,405.000000,,2013-01-01 20:53:00,
2013-01-01 14:03:00,30.0,11.0,-100.00,South,175,1.0,5.0,45,-99.99,,,0.01,405.000000,,2013-01-01 21:03:00,
2013-01-01 14:53:00,28.0,11.0,-100.00,SW,232,3.0,6.0,49,-99.99,,,0.02,366.000000,,2013-01-01 21:53:00,
2013-01-01 15:02:00,28.0,11.0,-100.00,SW,232,3.0,6.0,49,-99.99,,,0.02,366.000000,,2013-01-01 22:02:00,
2013-01-01 15:12:00,28.0,11.0,-100.00,SW,232,3.0,6.0,49,-99.99,,,0.02,366.000000,,2013-01-01 22:12:00,
2013-01-01 15:22:00,28.0,11.0,-100.00,SW,232,3.0,6.0,49,-99.99,,,0.02,366.000000,,2013-01-01 22:22:00,
2013-01-01 15:32:00,28.0,11.0,-100.00,SW,232,3.0,6.0,49,-99.99,,,0.02,366.000000,,2013-01-01 22:32:00,
2013-01-01 15:52:00,30.0,13.0,-100.00,SW,230,2.0,4.0,49,-99.99,,,0.02,279.000000,,2013-01-01 22:52:00,
2013-01-01 16:02:00,30.0,13.0,-100.00,SW,230,2.0,4.0,49,-99.99,,,0.02,279.000000,,2013-01-01 23:02:00,
2013-01-01 17:02:00,22.0,11.0,-100.00,NNW,347,1.0,4.0,61,-99.99,,,0.02,119.000000,,2013-01-02 00:02:00,
2013-01-01 17:12:00,22.0,11.0,-100.00,NNW,347,1.0,4.0,61,-99.99,,,0.02,119.000000,,2013-01-02 00:12:00,
2013-01-01 17:22:00,22.0,11.0,-100.00,NNW,347,1.0,4.0,61,-99.99,,,0.02,119.000000,,2013-01-02 00:22:00,
2013-01-01 17:32:00,22.0,11.0,-100.00,NNW,347,1.0,4.0,61,-99.99,,,0.02,119.000000,,2013-01-02 00:32:00,
2013-01-01 17:52:00,19.0,9.0,-100.00,NNW,341,4.0,9.0,64,0.00,,,0.02,7.000000,,2013-01-02 00:52:00,
2013-01-01 18:02:00,19.0,9.0,-100.00,NNW,341,4.0,9.0,64,0.00,,,0.02,7.000000,,2013-01-02 01:02:00,
2013-01-01 18:12:00,19.0,9.0,-100.00,NNW,341,4.0,9.0,64,0.00,,,0.02,7.000000,,2013-01-02 01:12:00,
2013-01-01 18:22:00,19.0,9.0,-100.00,NNW,341,4.0,9.0,64,0.00,,,0.02,7.000000,,2013-01-02 01:22:00,
2013-01-01 18:32:00,19.0,9.0,-100.00,NNW,341,4.0,9.0,64,0.00,,,0.02,7.000000,,2013-01-02 01:32:00,
2013-01-01 18:52:00,19.0,9.0,-100.00,North,358,2.0,7.0,65,0.00,,,0.02,0.000000,,2013-01-02 01:52:00,
2013-01-01 19:02:00,19.0,9.0,-100.00,North,358,2.0,7.0,65,0.00,,,0.02,0.000000,,2013-01-02 02:02:00,
2013-01-01 19:12:00,19.0,9.0,-100.00,North,358,2.0,7.0,65,0.00,,,0.02,0.000000,,2013-01-02 02:12:00,
2013-01-01 19:22:00,19.0,9.0,-100.00,North,358,2.0,7.0,65,0.00,,,0.02,0.000000,,2013-01-02 02:22:00,
2013-01-01 19:32:00,19.0,9.0,-100.00,North,358,2.0,7.0,65,0.00,,,0.02,0.000000,,2013-01-02 02:32:00,
2013-01-01 19:53:00,16.0,9.0,-100.00,ENE,67,0.0,4.0,74,0.00,,,0.02,0.000000,,2013-01-02 02:53:00,
2013-01-01 20:02:00,16.0,9.0,-100.00,ENE,67,0.0,4.0,74,0.00,,,0.02,0.000000,,2013-01-02 03:02:00,
2013-01-01 20:11:00,16.0,9.0,-100.00,ENE,67,0.0,4.0,74,0.00,,,0.02,0.000000,,2013-01-02 03:11:00,
2013-01-01 20:22:00,16.0,9.0,-100.00,ENE,67,0.0,4.0,74,0.00,,,0.02,0.000000,,2013-01-02 03:22:00,
2013-01-01 20:32:00,16.0,9.0,-100.00,ENE,67,0.0,4.0,74,0.00,,,0.02,0.000000,,2013-01-02 03:32:00,
2013-01-01 20:53:00,16.0,9.0,-100.00,East,89,0.0,5.0,75,0.00,,,0.02,0.000000,,2013-01-02 03:53:00,
2013-01-01 21:02:00,16.0,9.0,-100.00,East,89,0.0,5.0,75,0.00,,,0.02,0.000000,,2013-01-02 04:02:00,
2013-01-01 21:12:00,16.0,9.0,-100.00,East,89,0.0,5.0,75,0.00,,,0.02,0.000000,,2013-01-02 04:12:00,
2013-01-01 21:22:00,16.0,9.0,-100.00,East,89,0.0,5.0,75,0.00,,,0.02,0.000000,,2013-01-02 04:22:00,
2013-01-01 21:52:00,15.0,9.0,-100.00,NW,312,0.0,4.0,76,-99.99,,,0.02,0.000000,,2013-01-02 04:52:00,
2013-01-01 22:03:00,15.0,9.0,-100.00,NW,312,0.0,4.0,76,-99.99,,,0.02,0.000000,,2013-01-02 05:03:00,
2013-01-01 22:12:00,15.0,9.0,-100.00,NW,312,0.0,4.0,76,-99.99,,,0.02,0.000000,,2013-01-02 05:12:00,
2013-01-01 22:22:00,15.0,9.0,-100.00,NW,312,0.0,4.0,76,-99.99,,,0.02,0.000000,,2013-01-02 05:22:00,
2013-01-01 22:32:00,15.0,9.0,-100.00,NW,312,0.0,4.0,76,-99.99,,,0.02,0.000000,,2013-01-02 05:32:00,
2013-01-01 23:02:00,14.0,9.0,-100.00,East,82,4.0,5.0,79,-99.99,,,0.02,0.000000,,2013-01-02 06:02:00,
2013-01-01 23:12:00,14.0,9.0,-100.00,East,82,4.0,5.0,79,-99.99,,,0.02,0.000000,,2013-01-02 06:12:00,
2013-01-01 23:22:00,14.0,9.0,-100.00,East,82,4.0,5.0,79,-99.99,,,0.02,0.000000,,2013-01-02 06:22:00,
2013-01-01 23:32:00,14.0,9.0,-100.00,East,82,4.0,5.0,79,-99.99,,,0.02,0.000000,,2013-01-02 06:32:00,
2013-01-01 23:53:00,13.0,8.0,-100.00,East,89,4.0,6.0,81,0.00,,,0.02,0.000000,,2013-01-02 06:53:00,